North Bend, OR

4:57 AM PDT on May 24, 2017 (GMT -0700)
North Bend Municipal

Weather History for KOTH - March, 2013

Change the Weather History Date:

Friday, March 8, 2013

  Actual Average Record
Temperature  
Mean Temperature 43 °F 47 °F  
Max Temperature 52 °F 54 °F 84 °F (1905)
Min Temperature 34 °F 41 °F 29 °F (1924)
Degree Days  
Heating Degree Days 22 18  
Month to date heating degree days 148 144  
Since 1 July heating degree days 3186 3318  
Cooling Degree Days 0 0  
Month to date cooling degree days 0 0  
Year to date cooling degree days 0 0  
Moisture  
Dew Point 40 °F    
Average Humidity 91    
Maximum Humidity 100    
Minimum Humidity 74    
Precipitation  
Precipitation 0.00 in 0.26 in 2.40 in (1966)
Month to date precipitation 1.68 2.17  
Year to date precipitation 8.45 19.95  
Sea Level Pressure  
Sea Level Pressure 30.10 in    
Wind  
Wind Speed 8 mph (NE)    
Max Wind Speed 16 mph    
Max Gust Speed 22 mph    
Visibility 7 miles    
Events      
T = Trace of Precipitation, MM = Missing Value Source: NWS Daily Summary

Daily Weather History Graph

Daily Weather History Graph

Search for Another Location

Airport or City:

Trip Planner

Search our weather history database for the weather conditions in past years. The results will help you decide how hot, cold, wet, or windy it might be!

Date:

Astronomy

Mar. 08, 2013 Rise Set
Actual Time 6:40 AM PST 6:15 PM PST
Civil Twilight 6:12 AM PST 6:43 PM PST
Nautical Twilight 5:39 AM PST 7:16 PM PST
Astronomical Twilight 5:05 AM PST 7:50 PM PST
Moon 4:33 AM PST (3/8) 3:12 PM PST (3/8)
Length of Visible Light 12h 31m
Length of Day
11h 34m
Waning Crescent, 11% of the Moon is Illuminated
Mar 8
Waning Crescent
Mar 11
New
Mar 19
First Quarter
Mar 27
Full
Apr 2
Last Quarter

Hourly Weather History & Observations

Time (PST) Temp. Windchill Dew Point Humidity Pressure Visibility Wind Dir Wind Speed Gust Speed Precip Events Conditions
12:15 AM 37.4 °F 32.8 °F 37.4 °F 100% 30.04 in 0.8 mi SE 5.8 mph - N/A   Overcast
12:35 AM 37.4 °F 34.9 °F 37.4 °F 100% 30.04 in 1.8 mi SE 3.5 mph - N/A   Overcast
12:55 AM 37.4 °F 32.8 °F 37.4 °F 100% 30.04 in 0.2 mi ESE 5.8 mph - N/A   Overcast
1:15 AM 37.4 °F 32.1 °F 37.4 °F 100% 30.04 in 0.5 mi SE 6.9 mph - N/A   Overcast
1:35 AM 37.4 °F 33.8 °F 35.6 °F 93% 30.04 in 0.5 mi SSE 4.6 mph - N/A   Overcast
1:55 AM 37.4 °F 32.8 °F 35.6 °F 93% 30.04 in 0.2 mi SSE 5.8 mph - N/A   Overcast
2:15 AM 35.6 °F 31.7 °F 35.6 °F 100% 30.04 in 0.8 mi SSE 4.6 mph - N/A   Overcast
2:35 AM 35.6 °F 29.9 °F 35.6 °F 100% 30.04 in 4.0 mi SE 6.9 mph - N/A   Overcast
2:55 AM 35.6 °F 31.7 °F 35.6 °F 100% 30.03 in 0.5 mi SE 4.6 mph - N/A   Overcast
3:15 AM 35.6 °F 30.7 °F 35.6 °F 100% 30.03 in 0.2 mi SE 5.8 mph - N/A   Overcast
3:35 AM 35.6 °F 31.7 °F 35.6 °F 100% 30.03 in 0.2 mi SE 4.6 mph - N/A   Overcast
3:55 AM 35.6 °F 29.9 °F 35.6 °F 100% 30.03 in 10.0 mi ESE 6.9 mph - N/A   Mostly Cloudy
4:15 AM 35.6 °F 31.7 °F 35.6 °F 100% 30.04 in 0.2 mi SE 4.6 mph - N/A   Overcast
4:35 AM 35.6 °F 31.7 °F 35.6 °F 100% 30.04 in 0.5 mi SE 4.6 mph - N/A   Overcast
4:55 AM 33.8 °F 29.6 °F 33.8 °F 100% 30.04 in 0.5 mi SE 4.6 mph - N/A   Overcast
5:15 AM 33.8 °F 27.7 °F 33.8 °F 100% 30.04 in 0.8 mi SE 6.9 mph - N/A   Overcast
5:35 AM 33.8 °F 29.6 °F 33.8 °F 100% 30.04 in 1.0 mi SE 4.6 mph - N/A   Overcast
5:55 AM 33.8 °F 28.6 °F 33.8 °F 100% 30.05 in 0.5 mi SE 5.8 mph - N/A   Overcast
6:15 AM 33.8 °F 29.6 °F 33.8 °F 100% 30.05 in 0.8 mi SE 4.6 mph - N/A   Overcast
6:35 AM 33.8 °F 27.7 °F 33.8 °F 100% 30.05 in 0.5 mi SE 6.9 mph - N/A   Overcast
6:55 AM 33.8 °F 29.6 °F 33.8 °F 100% 30.06 in 0.2 mi SE 4.6 mph - N/A   Overcast
7:15 AM 33.8 °F 29.6 °F 33.8 °F 100% 30.06 in 0.2 mi SE 4.6 mph - N/A   Overcast
7:35 AM 35.6 °F 31.7 °F 33.8 °F 93% 30.06 in 0.5 mi SE 4.6 mph - N/A   Overcast
7:55 AM 35.6 °F 30.7 °F 35.6 °F 100% 30.06 in 0.5 mi SE 5.8 mph - N/A   Overcast
8:15 AM 35.6 °F 31.7 °F 35.6 °F 100% 30.07 in 3.0 mi SE 4.6 mph - N/A   Overcast
8:35 AM 37.4 °F 34.9 °F 37.4 °F 100% 30.07 in 3.0 mi ESE 3.5 mph - N/A   Scattered Clouds
8:55 AM 39.2 °F 37.0 °F 37.4 °F 93% 30.07 in 10.0 mi East 3.5 mph - N/A   Clear
9:15 AM 41.0 °F - 39.2 °F 93% 30.07 in 10.0 mi Calm Calm - N/A   Clear
9:35 AM 42.8 °F 41.1 °F 41.0 °F 93% 30.07 in 10.0 mi East 3.5 mph - N/A   Clear
9:55 AM 42.8 °F 41.1 °F 41.0 °F 93% 30.08 in 10.0 mi North 3.5 mph - N/A   Clear
10:15 AM 42.8 °F - 41.0 °F 93% 30.08 in 10.0 mi Calm Calm - N/A   Clear
10:35 AM 44.6 °F - 42.8 °F 93% 30.08 in 10.0 mi Calm Calm - N/A   Clear
10:55 AM 46.4 °F 45.2 °F 42.8 °F 87% 30.08 in 10.0 mi West 3.5 mph - N/A   Clear
11:15 AM 48.2 °F - 42.8 °F 82% 30.08 in 10.0 mi NNW 5.8 mph - N/A   Clear
11:35 AM 48.2 °F - 42.8 °F 82% 30.08 in 10.0 mi NNW 8.1 mph - N/A   Clear
11:55 AM 50.0 °F - 42.8 °F 76% 30.08 in 10.0 mi NNW 10.4 mph - N/A   Clear
12:15 PM 50.0 °F - 42.8 °F 76% 30.08 in 10.0 mi NNW 12.7 mph - N/A   Clear
12:35 PM 50.0 °F - 42.8 °F 76% 30.08 in 10.0 mi NNW 13.8 mph - N/A   Clear
12:55 PM 50.0 °F - 42.8 °F 76% 30.08 in 10.0 mi NNW 16.1 mph - N/A   Clear
1:15 PM 50.0 °F - 44.6 °F 82% 30.08 in 10.0 mi NNW 16.1 mph - N/A   Clear
1:35 PM 50.0 °F - 44.6 °F 82% 30.07 in 10.0 mi North 17.3 mph - N/A   Clear
1:55 PM 50.0 °F - 44.6 °F 82% 30.07 in 10.0 mi North 16.1 mph - N/A   Clear
2:15 PM 51.8 °F - 44.6 °F 76% 30.07 in 10.0 mi North 17.3 mph 21.9 mph N/A   Clear
2:35 PM 50.0 °F - 44.6 °F 82% 30.08 in 10.0 mi North 17.3 mph - N/A   Clear
2:55 PM 50.0 °F - 44.6 °F 82% 30.08 in 10.0 mi North 15.0 mph - N/A   Partly Cloudy
3:15 PM 50.0 °F - 44.6 °F 82% 30.09 in 10.0 mi North 17.3 mph 21.9 mph N/A   Scattered Clouds
3:35 PM 48.2 °F - 44.6 °F 87% 30.09 in 10.0 mi NNW 19.6 mph 24.2 mph N/A   Partly Cloudy
3:55 PM 48.2 °F - 44.6 °F 87% 30.09 in 10.0 mi North 15.0 mph 21.9 mph N/A   Scattered Clouds
4:15 PM 48.2 °F - 44.6 °F 87% 30.10 in 10.0 mi North 13.8 mph - N/A   Mostly Cloudy
4:35 PM 48.2 °F - 44.6 °F 87% 30.10 in 10.0 mi North 13.8 mph - N/A   Overcast
4:55 PM 48.2 °F - 42.8 °F 82% 30.11 in 10.0 mi NNW 15.0 mph - N/A   Overcast
5:15 PM 46.4 °F 40.4 °F 42.8 °F 87% 30.12 in 10.0 mi North 13.8 mph 18.4 mph N/A   Overcast
5:35 PM 46.4 °F 41.9 °F 44.6 °F 93% 30.12 in 10.0 mi North 9.2 mph - N/A   Overcast
5:55 PM 46.4 °F 40.4 °F 42.8 °F 87% 30.13 in 10.0 mi North 13.8 mph 19.6 mph N/A   Overcast
6:15 PM 46.4 °F 41.9 °F 42.8 °F 87% 30.15 in 10.0 mi North 9.2 mph - N/A   Overcast
6:35 PM 46.4 °F 41.5 °F 42.8 °F 87% 30.15 in 10.0 mi North 10.4 mph - N/A   Overcast
6:55 PM 46.4 °F 41.1 °F 42.8 °F 87% 30.16 in 10.0 mi North 11.5 mph - N/A   Overcast
7:15 PM 46.4 °F 41.5 °F 42.8 °F 87% 30.17 in 10.0 mi North 10.4 mph - N/A   Overcast
7:35 PM 46.4 °F 41.5 °F 42.8 °F 87% 30.18 in 10.0 mi NNW 10.4 mph - N/A   Overcast
7:55 PM 46.4 °F 41.1 °F 42.8 °F 87% 30.18 in 10.0 mi North 11.5 mph - N/A   Overcast
8:15 PM 46.4 °F 41.5 °F 42.8 °F 87% 30.19 in 10.0 mi North 10.4 mph - N/A   Overcast
8:35 PM 46.4 °F 42.4 °F 42.8 °F 87% 30.20 in 10.0 mi North 8.1 mph - N/A   Overcast
8:55 PM 46.4 °F 42.4 °F 44.6 °F 93% 30.21 in 10.0 mi North 8.1 mph - N/A   Overcast
9:15 PM 46.4 °F 42.4 °F 42.8 °F 87% 30.21 in 10.0 mi North 8.1 mph - N/A   Overcast
9:35 PM 46.4 °F 42.9 °F 42.8 °F 87% 30.22 in 10.0 mi North 6.9 mph - N/A   Overcast
9:55 PM 46.4 °F 43.5 °F 42.8 °F 87% 30.23 in 10.0 mi NNE 5.8 mph - N/A   Overcast
10:15 PM 46.4 °F 42.9 °F 42.8 °F 87% 30.23 in 10.0 mi NNE 6.9 mph - N/A   Overcast
10:35 PM 46.4 °F 42.4 °F 42.8 °F 87% 30.23 in 10.0 mi NE 8.1 mph - N/A   Overcast
10:55 PM 44.6 °F 41.4 °F 42.8 °F 93% 30.23 in 10.0 mi NE 5.8 mph - N/A   Overcast
11:15 PM 46.4 °F 45.2 °F 42.8 °F 87% 30.24 in 10.0 mi East 3.5 mph - N/A   Overcast
11:35 PM 44.6 °F - 42.8 °F 93% 30.24 in 10.0 mi Calm Calm - N/A   Overcast
11:55 PM 44.6 °F 43.1 °F 42.8 °F 93% 30.25 in 10.0 mi ESE 3.5 mph - N/A   Overcast